N5AET-1 Weather Reports


Display with metric or nautical units.
time (UTC)temp
F
wind
direction
speed
MPH
gust
MPH
rain 1hr
in
rain 24hr
in
rain mn
in
humidity
%
barometer
mb
20260904143515 84 0.0 0.0 0.00 0.00 0.00 84 989.4
20260904142515 83 0.0 0.0 0.00 0.00 0.00 86 989.5
20260904141515 82 0.0 1.0 0.00 0.00 0.00 88 989.5
20260904140535 81 144 1.0 3.0 0.00 0.00 0.00 89 989.6
20260904135515 80 141 1.0 3.0 0.00 0.00 0.00 91 989.5
20260904134515 79 0.0 0.0 0.00 0.00 0.00 92 989.3
20260904133515 79 0.0 1.0 0.00 0.00 0.00 93 989.2
20260904132535 78 146 0.0 3.0 0.00 0.00 0.00 93 989.1
20260904131515 78 156 0.0 2.0 0.00 0.00 0.00 94 989.0
20260904130515 77 0.0 0.0 0.00 0.00 0.00 95 988.9
20260904125515 77 0.0 0.0 0.00 0.00 0.00 95 988.8
20260904124515 76 0.0 0.0 0.00 0.00 0.00 95 988.7
20260904123535 76 0.0 0.0 0.00 0.00 0.00 96 988.7
20260904122515 76 0.0 0.0 0.00 0.00 0.00 95 988.8
20260904121515 75 0.0 0.0 0.00 0.00 0.00 95 988.6
20260904120515 75 210 0.0 1.0 0.00 0.00 0.00 95 988.6
20260904115515 75 0.0 0.0 0.00 0.00 0.00 94 988.6
20260904114515 76 0.0 0.0 0.00 0.00 0.00 94 988.5
20260904113535 75 0.0 0.0 0.00 0.00 0.00 93 988.4
20260904112515 75 0.0 0.0 0.00 0.00 0.00 93 988.4
20260904111515 75 0.0 0.0 0.00 0.00 0.00 92 988.3
20260904110535 76 0.0 0.0 0.00 0.00 0.00 92 988.3
20260904105515 76 0.0 0.0 0.00 0.00 0.00 92 988.3
20260904104555 76 0.0 0.0 0.00 0.00 0.00 91 988.1
20260904103515 76 0.0 0.0 0.00 0.00 0.00 91 988.1
20260904102515 76 0.0 0.0 0.00 0.00 0.00 91 988.0
20260904101555 76 0.0 0.0 0.00 0.00 0.00 90 988.1
20260904100515 76 0.0 0.0 0.00 0.00 0.00 90 988.0
20260904095515 76 0.0 0.0 0.00 0.00 0.00 90 987.9
20260904094535 77 0.0 0.0 0.00 0.00 0.00 89 987.9
20260904093535 77 0.0 0.0 0.00 0.00 0.00 89 987.9
20260904092535 77 0.0 0.0 0.00 0.00 0.00 88 988.0
20260904091515 77 0.0 0.0 0.00 0.00 0.00 87 988.0
20260904090515 78 0.0 0.0 0.00 0.00 0.00 87 988.1
20260904085515 78 0.0 0.0 0.00 0.00 0.00 86 987.9
20260904084515 78 0.0 0.0 0.00 0.00 0.00 86 987.9
20260904083515 78 0.0 0.0 0.00 0.00 0.00 86 987.9
20260904082515 78 0.0 0.0 0.00 0.00 0.00 85 987.8
20260904081515 79 0.0 0.0 0.00 0.00 0.00 85 987.8
20260904080515 79 0.0 0.0 0.00 0.00 0.00 85 987.8
20260904075515 79 0.0 0.0 0.00 0.00 0.00 84 987.8
20260904074515 79 0.0 0.0 0.00 0.00 0.00 84 987.7
20260904073515 79 0.0 0.0 0.00 0.00 0.00 83 987.7
20260904072555 79 0.0 0.0 0.00 0.00 0.00 83 987.8
20260904071555 80 0.0 1.0 0.00 0.00 0.00 82 987.8
20260904070515 80 0.0 0.0 0.00 0.00 0.00 81 987.8
20260904065515 80 0.0 0.0 0.00 0.00 0.00 80 988.0
20260904064535 80 0.0 0.0 0.00 0.00 0.00 80 988.1
20260904063515 80 0.0 0.0 0.00 0.00 0.00 79 988.1
20260904062515 80 0.0 0.0 0.00 0.00 0.00 78 988.0
20260904061515 80 0.0 0.0 0.00 0.00 0.00 78 988.0
20260904060515 80 0.0 0.0 0.00 0.00 0.00 77 988.1
20260904055515 80 0.0 0.0 0.00 0.00 0.00 78 988.1
20260904054515 80 0.0 1.0 0.00 0.00 0.00 77 988.1
20260904053515 80 221 0.0 2.0 0.00 0.00 0.00 77 988.1
20260904052515 81 0.0 0.0 0.00 0.00 0.00 76 988.0
20260904051515 81 0.0 0.0 0.00 0.00 0.00 76 988.0
20260904050515 81 0.0 0.0 0.00 0.00 0.00 75 988.0
20260904045515 81 104 0.0 1.0 0.00 0.00 0.00 74 987.9
20260904044516 81 0.0 0.0 0.00 0.00 0.00 73 987.9
20260904043516 82 0.0 0.0 0.00 0.00 0.00 73 987.9
20260904042515 82 136 0.0 3.0 0.00 0.00 0.00 73 987.9
20260904041515 82 225 0.0 1.0 0.00 0.00 0.00 71 988.0
20260904040515 82 0.0 0.0 0.00 0.00 0.00 70 988.0
20260904035516 82 167 0.0 1.0 0.00 0.00 0.00 69 988.1
20260904034515 82 133 0.0 2.0 0.00 0.00 0.00 69 988.0
20260904033536 82 0.0 0.0 0.00 0.00 0.00 69 988.1
20260904032515 82 190 1.0 3.0 0.00 0.00 0.00 68 988.1
20260904031515 82 0.0 0.0 0.00 0.00 0.00 69 988.0
20260904030515 83 0.0 1.0 0.00 0.00 0.00 69 988.0
20260904025516 83 0.0 0.0 0.00 0.00 0.00 70 987.8
20260904024515 83 0.0 0.0 0.00 0.00 0.00 70 987.6
20260904023516 83 136 0.0 2.0 0.00 0.00 0.00 70 987.6
20260904022516 83 145 1.0 3.0 0.00 0.00 0.00 71 987.4
20260904021535 83 196 1.0 3.0 0.00 0.00 0.00 72 987.3
20260904020516 84 0.0 0.0 0.00 0.00 0.00 72 987.1
20260904015516 84 116 0.0 1.0 0.00 0.00 0.00 72 986.9
20260904014516 84 159 0.0 2.0 0.00 0.00 0.00 71 986.7
20260904013516 85 156 1.0 3.0 0.00 0.00 0.00 70 986.5
20260904012515 85 163 2.0 4.0 0.00 0.00 0.00 69 986.5
20260904011515 85 147 1.0 3.0 0.00 0.00 0.00 67 986.4
20260904010515 86 144 1.0 3.0 0.00 0.00 0.00 67 986.4
20260904005515 86 154 1.0 3.0 0.00 0.00 0.00 66 986.5
20260904004516 86 157 2.0 3.0 0.00 0.00 0.00 64 986.5
20260904003516 87 177 1.0 5.0 0.00 0.00 0.00 62 986.4
20260904002536 87 178 2.0 3.0 0.00 0.00 0.00 63 986.3
20260904001515 88 159 1.0 3.0 0.00 0.00 0.00 63 986.3
20260904000515 88 142 4.0 6.0 0.00 0.00 0.00 63 986.2
20260903235536 88 161 2.0 4.0 0.00 0.00 0.00 63 986.1
20260903234536 89 157 2.0 5.0 0.00 0.00 0.00 64 986.0
20260903233516 89 94 3.0 10.0 0.00 0.00 0.00 64 985.9
20260903232536 90 82 4.0 11.0 0.00 0.00 0.00 62 985.8
20260903231516 90 151 0.0 2.0 0.00 0.00 0.00 61 985.9
20260903230516 91 123 1.0 2.0 0.00 0.00 0.00 58 985.9
20260903225515 91 158 1.0 3.0 0.00 0.00 0.00 58 985.8
20260903224535 91 130 0.0 4.0 0.00 0.00 0.00 57 985.8
20260903223516 91 150 3.0 5.0 0.00 0.00 0.00 57 985.8
20260903222516 91 199 1.0 3.0 0.00 0.00 0.00 57 985.8
20260903221515 91 143 2.0 5.0 0.00 0.00 0.00 58 985.7
20260903220536 91 145 1.0 5.0 0.00 0.00 0.00 58 985.7
20260903215516 91 86 2.0 8.0 0.00 0.00 0.00 58 985.9
20260903214516 92 123 1.0 5.0 0.00 0.00 0.00 58 986.0
20260903213516 91 139 2.0 3.0 0.00 0.00 0.00 59 986.2
20260903212516 92 196 0.0 2.0 0.00 0.00 0.00 58 986.1
20260903211516 91 126 0.0 3.0 0.00 0.00 0.00 60 986.2
20260903210535 90 138 1.0 7.0 0.00 0.00 0.00 61 986.3
20260903205516 90 161 2.0 4.0 0.00 0.00 0.00 61 986.4
20260903204515 90 145 2.0 5.0 0.00 0.00 0.00 62 986.5
20260903203515 90 139 0.0 1.0 0.00 0.00 0.00 62 986.7
20260903202535 91 134 1.0 4.0 0.00 0.00 0.00 61 986.8
20260903201516 90 162 1.0 3.0 0.00 0.00 0.00 63 987.0
20260903200515 88 146 1.0 3.0 0.00 0.00 0.00 65 987.0
20260903195555 87 175 0.0 1.0 0.00 0.00 0.00 68 987.1
20260903194515 86 153 1.0 4.0 0.00 0.00 0.00 69 987.1
20260903193515 87 88 0.0 3.0 0.00 0.00 0.00 68 987.2
20260903192515 87 145 1.0 3.0 0.00 0.00 0.00 66 987.3
20260903191535 88 182 0.0 4.0 0.00 0.00 0.00 66 987.5
20260903190516 89 188 3.0 6.0 0.00 0.00 0.00 66 987.6
20260903185516 88 140 3.0 5.0 0.00 0.00 0.00 67 987.7
20260903184516 86 141 2.0 4.0 0.00 0.00 0.00 71 987.9
20260903183515 86 169 3.0 7.0 0.00 0.00 0.00 71 988.1
20260903182516 86 208 1.0 3.0 0.00 0.00 0.00 72 988.1
20260903181535 86 173 2.0 7.0 0.00 0.00 0.00 72 988.2
20260903180515 85 176 1.0 4.0 0.00 0.00 0.00 75 988.2
20260903175616 84 174 3.0 6.0 0.00 0.00 0.00 78 988.5
20260903174515 83 198 0.0 3.0 0.00 0.00 0.00 79 988.5
20260903173536 83 178 1.0 3.0 0.00 0.00 0.00 80 988.6
20260903172535 84 153 1.0 4.0 0.00 0.00 0.00 79 988.6
20260903171515 83 152 1.0 2.0 0.00 0.00 0.00 81 988.6
20260903170515 83 155 1.0 5.0 0.00 0.00 0.00 81 988.7
20260903165515 83 128 0.0 1.0 0.00 0.00 0.00 81 988.7
20260903164515 83 242 0.0 4.0 0.00 0.00 0.00 82 988.6
20260903163516 83 202 0.0 2.0 0.00 0.00 0.00 83 988.6
20260903162516 83 0.0 0.0 0.00 0.00 0.00 83 988.6
20260903161516 83 0.0 0.0 0.00 0.00 0.00 84 988.6
20260903160515 82 146 1.0 4.0 0.00 0.00 0.00 85 988.6
20260903155516 82 0.0 0.0 0.00 0.00 0.00 87 988.5
20260903154515 81 144 0.0 2.0 0.00 0.00 0.00 87 988.5
20260903153515 81 0.0 0.0 0.00 0.00 0.00 88 988.5
20260903152515 81 0.0 0.0 0.00 0.00 0.00 88 988.5
20260903151515 81 155 0.0 1.0 0.00 0.00 0.00 88 988.5
20260903150536 80 0.0 0.0 0.00 0.00 0.00 89 988.5
20260903145515 80 0.0 2.0 0.00 0.00 0.00 89 988.5
20260903144515 80 0.0 0.0 0.00 0.00 0.00 90 988.5